GEFSSE_500_meanwind_168.txt.gz
Wind_Speed
3 3 3 3 3 3 4 5 5 5 6 6 6 6 5 5 4 4 3 3 2 3 2 2 1 1 2 2 3 5 6 7 7 7 8 9 9 9 9 9 9 10 10
3 3 2 2 3 3 4 4 4 5 5 6 6 5 5 5 5 4 4 3 3 3 3 2 1 1 2 2 4 4 6 7 8 8 9 10 10 10 10 9 9 10 11
3 3 2 2 2 3 3 3 4 4 5 5 5 5 5 5 5 5 4 3 3 3 3 2 1 1 1 2 3 4 5 6 8 8 9 10 11 11 11 10 10 11 11
4 3 2 2 2 2 2 3 4 4 4 5 5 5 5 5 5 5 5 4 3 3 2 2 1 1 1 2 3 4 5 6 7 8 9 10 11 12 12 11 11 11 11
4 3 2 1 1 1 2 2 3 4 4 5 5 5 5 5 5 5 5 4 3 3 2 2 2 2 2 2 3 3 4 6 7 8 9 9 10 12 12 12 12 12 12
4 3 2 1 1 0 1 2 3 3 4 4 5 5 5 6 6 5 5 4 3 3 2 2 2 3 3 3 3 3 4 5 7 8 9 9 10 11 12 12 12 12 12
5 3 3 2 1 0 1 2 3 3 4 5 5 5 5 6 6 6 5 4 4 3 3 3 3 3 3 3 3 3 4 5 6 8 8 8 9 10 11 12 12 12 12
5 4 3 3 2 1 0 1 2 3 4 4 5 5 5 6 6 6 5 5 4 4 3 3 3 3 3 3 3 4 4 5 6 7 8 8 9 10 11 11 12 11 12
6 5 4 3 2 1 1 1 2 3 4 5 5 5 5 5 6 6 6 5 5 4 4 3 3 3 3 3 3 4 4 5 6 7 8 8 9 9 10 11 11 11 12
6 5 4 4 2 1 1 1 2 3 4 4 5 5 5 5 5 6 6 5 5 4 4 4 3 3 3 3 3 3 4 5 6 7 7 8 8 9 10 10 10 11 11
6 5 4 4 2 2 1 1 2 3 4 4 5 5 4 4 5 5 6 5 5 4 4 4 3 3 2 3 3 2 3 4 5 6 7 7 8 8 9 10 10 10 10
5 5 5 4 2 2 1 1 2 3 4 4 4 5 4 5 5 5 5 5 5 4 4 4 4 3 2 2 2 2 3 3 4 5 6 6 7 8 9 10 10 10 10
5 5 5 4 3 2 1 1 1 2 4 4 5 5 4 5 5 5 5 5 5 5 4 4 3 3 2 1 1 2 3 3 3 4 5 5 6 7 8 10 10 10 10
6 5 5 4 3 3 2 1 1 2 3 4 5 5 5 4 5 5 5 5 5 4 4 4 3 3 2 1 0 1 2 3 3 3 4 4 5 6 8 9 10 10 10
6 5 5 4 4 3 2 1 1 2 3 4 4 5 5 5 5 5 5 5 5 4 4 4 3 2 2 1 1 1 2 3 3 3 4 5 5 6 8 9 10 10 9
7 6 5 4 3 3 2 1 1 2 2 3 4 4 5 5 6 6 5 5 4 4 3 3 3 2 1 1 2 2 3 3 4 4 5 5 6 6 7 8 9 9 9
8 7 6 5 4 3 2 1 0 1 2 3 3 4 4 5 5 6 5 5 4 4 4 3 3 2 1 1 2 2 3 3 3 4 5 5 5 6 7 8 8 9 9
8 7 7 6 4 3 2 2 1 1 2 3 3 4 4 4 5 5 5 5 4 4 3 3 3 2 2 2 2 2 3 3 4 4 5 5 5 6 7 8 8 8 8
8 8 7 6 5 3 3 2 1 1 2 3 3 4 4 4 5 5 5 5 4 4 4 3 3 3 2 2 2 2 3 3 4 4 4 5 5 6 7 7 8 8 8
9 9 7 6 5 4 3 3 2 1 2 2 3 4 4 4 5 5 5 5 5 4 4 4 3 3 2 2 2 2 3 3 3 4 4 4 5 5 6 7 7 7 7
9 8 7 6 6 5 4 3 2 1 1 2 2 3 3 4 4 5 5 5 5 5 4 4 3 3 3 2 2 2 2 3 3 4 4 4 5 5 6 6 6 7 7
9 8 7 7 6 5 4 4 3 2 2 2 2 2 2 3 4 4 5 5 4 4 4 4 4 3 4 3 3 2 2 2 2 3 4 5 5 5 6 5 6 6 6
9 8 8 7 7 6 5 5 4 3 3 3 2 2 2 2 3 4 4 4 4 4 4 4 4 3 3 3 2 2 2 2 2 2 3 4 5 5 5 5 5 5 6
10 9 8 7 7 6 6 6 5 4 4 3 3 2 2 2 3 3 4 4 4 4 3 3 3 3 2 2 2 2 1 1 1 1 2 3 4 4 4 4 5 5 6
10 9 8 8 7 7 7 6 5 5 4 4 4 3 3 2 3 3 4 4 4 4 3 2 2 2 2 1 1 1 1 1 1 0 1 3 3 3 4 4 4 5 5
11 10 9 9 8 8 7 7 6 6 5 5 4 3 3 3 3 3 4 4 4 4 4 3 2 2 2 1 2 1 1 1 1 1 1 2 3 3 4 5 5 5 5

GEFSSE_500_meanwind_174.txt.gz
Wind_Speed
2 1 1 1 1 1 1 2 2 2 3 4 3 3 3 3 3 3 3 3 3 3 3 4 3 3 3 4 5 6 7 7 7 8 8 7 7 7 7 7 7 7 7
2 1 1 0 1 1 1 2 2 3 3 4 4 4 4 4 4 4 4 3 3 4 4 4 4 4 4 4 5 6 7 8 8 9 9 9 9 8 8 8 8 8 8
2 1 1 1 0 1 1 2 3 3 4 4 4 4 4 4 4 4 4 4 4 4 4 4 4 4 4 4 5 6 7 8 8 9 9 9 9 10 9 9 10 9 9
3 2 1 1 0 1 2 3 3 3 3 4 5 5 5 5 5 5 5 5 5 4 4 4 5 4 4 5 5 5 6 7 8 9 9 9 10 10 10 10 10 10 10
4 3 3 2 1 1 2 2 3 3 3 4 5 5 5 6 6 6 6 6 5 5 4 4 5 5 5 4 4 5 6 6 7 8 8 9 10 10 10 11 10 11 10
5 4 3 2 2 1 1 2 3 3 4 5 5 6 6 6 6 6 6 6 5 5 5 5 5 5 5 5 4 5 6 6 7 7 8 9 9 10 10 11 11 11 11
6 5 4 3 2 1 1 2 2 3 4 5 6 6 6 6 6 6 5 5 5 6 6 5 5 5 5 5 5 5 6 6 7 7 8 9 9 9 10 11 11 11 11
6 5 5 4 2 1 1 1 2 3 5 5 6 6 6 6 6 6 6 5 5 6 6 5 5 5 5 5 5 5 5 6 7 7 8 8 8 9 9 10 10 11 11
6 5 4 3 2 2 1 0 1 3 5 5 6 6 6 6 6 6 6 6 6 6 6 5 4 4 4 5 5 5 5 6 7 7 8 8 8 9 9 9 10 10 10
6 5 5 3 2 2 1 0 1 3 4 5 5 6 6 6 6 6 6 6 6 6 5 5 4 4 4 4 4 4 5 6 6 6 7 7 8 8 8 9 9 9 10
6 5 4 4 3 2 1 0 1 3 4 5 5 6 7 7 6 6 7 7 7 6 5 5 4 4 4 3 3 4 4 5 5 6 6 7 8 8 7 8 8 9 9
6 5 4 3 2 2 1 0 1 3 4 5 6 6 7 6 6 7 7 7 7 6 5 5 4 4 3 3 3 3 3 4 4 5 5 6 7 7 7 7 8 8 8
6 5 4 3 2 1 1 1 1 3 4 5 6 6 7 7 7 7 8 7 7 6 6 5 4 4 3 2 2 2 2 3 3 4 4 4 5 6 6 7 7 7 7
6 5 4 3 3 2 1 1 2 3 4 5 6 6 7 7 7 8 8 8 7 6 6 5 4 4 3 2 1 1 2 3 3 3 4 4 4 5 5 6 7 7 7
7 6 4 4 3 2 1 1 2 3 4 5 6 6 7 8 8 8 8 7 7 6 6 5 4 4 4 2 1 1 1 1 2 2 3 3 3 4 4 5 6 6 7
7 6 5 4 3 2 1 1 2 3 4 5 6 6 7 8 8 8 8 7 7 6 6 5 5 4 4 3 2 1 0 1 2 2 3 3 3 3 4 4 5 6 6
7 6 5 4 3 2 2 2 2 3 4 5 5 6 6 7 7 8 8 8 7 7 6 6 5 4 4 3 2 1 0 1 1 2 2 3 3 3 4 4 5 6 6
8 6 5 4 3 3 2 2 3 3 4 5 5 6 6 7 7 7 8 8 7 7 6 6 5 5 4 3 2 2 1 0 1 1 2 2 3 3 3 4 5 5 6
8 7 6 5 4 4 3 3 3 4 4 4 5 5 6 6 6 7 7 8 7 7 7 6 6 5 4 3 2 2 1 1 0 0 1 2 2 3 4 4 5 5 6
8 7 7 6 5 4 4 3 3 3 3 4 4 5 5 5 6 7 7 7 7 7 7 6 5 5 5 4 3 2 2 1 1 1 0 0 1 2 3 3 4 5 6
8 8 7 6 5 4 4 3 3 3 3 3 4 5 5 5 5 6 6 6 7 6 6 6 5 5 5 4 3 3 2 1 1 1 0 0 0 1 2 3 4 4 5
8 7 6 6 5 5 4 3 3 3 2 3 3 4 5 5 5 5 5 6 6 6 5 5 5 5 5 4 4 3 2 1 1 1 1 0 0 1 2 3 3 4 4
8 7 6 6 6 5 4 3 4 3 2 2 3 4 4 4 4 4 4 5 5 5 5 5 4 4 4 4 3 3 2 2 2 2 1 1 1 1 1 2 3 3 4
8 8 7 6 6 5 4 4 4 4 3 3 3 4 4 4 4 4 4 5 5 5 4 4 4 4 4 4 3 3 2 2 1 1 1 1 1 1 1 2 3 3 4
8 8 7 7 6 5 5 5 5 5 4 3 3 3 4 4 4 4 4 4 5 5 4 4 3 3 3 3 3 3 3 2 2 2 2 2 2 2 2 3 4 4 5
9 8 7 7 7 6 5 5 5 5 5 5 4 4 4 4 4 4 4 4 4 4 4 4 4 4 4 4 4 3 3 3 3 2 2 2 3 3 4 4 5 5 6

GEFSSE_500_meanwind_180.txt.gz
Wind_Speed
2 1 0 1 1 2 2 1 2 2 2 2 3 3 4 4 5 5 5 5 5 5 5 5 6 6 6 6 7 8 8 8 8 8 9 9 9 9 10 10 9 8 8
1 0 0 0 1 1 1 1 1 2 2 2 3 4 4 5 5 5 5 4 4 5 5 5 5 6 6 7 7 7 8 8 8 8 9 9 10 10 11 10 10 9 9
2 1 1 1 0 1 1 1 1 2 2 3 4 4 5 5 5 5 5 5 4 5 5 5 5 6 6 7 7 7 7 8 8 9 9 9 10 10 10 10 10 10 9
2 2 2 2 1 1 1 1 1 2 2 3 4 5 5 5 5 5 5 5 5 5 5 5 5 6 6 6 6 6 7 8 8 9 9 9 10 10 11 11 10 10 10
2 2 3 2 1 2 2 1 1 2 3 3 4 5 5 5 5 5 5 5 5 5 5 5 5 6 6 6 6 6 7 8 8 9 9 9 10 10 11 11 10 10 10
3 2 2 2 2 2 2 1 1 2 3 3 4 5 5 6 5 5 5 5 5 6 6 5 5 5 6 5 6 7 7 7 8 9 9 9 10 10 10 10 10 10 10
4 4 3 4 3 2 2 1 1 2 2 3 4 5 6 6 6 5 5 5 5 5 5 5 5 5 5 5 5 6 7 7 8 8 8 9 10 10 10 10 11 11 11
4 4 5 4 4 3 2 2 1 2 3 3 5 6 6 6 6 6 5 5 5 5 5 5 4 5 5 5 5 6 6 6 7 7 8 9 9 9 9 10 11 11 11
6 5 5 4 4 4 3 2 2 2 3 4 5 6 6 6 6 6 6 6 6 5 5 5 5 4 5 5 5 6 6 6 6 7 7 8 9 9 9 9 10 10 10
6 5 5 5 5 4 3 3 3 3 3 3 5 5 6 6 6 6 6 6 6 5 5 5 4 4 4 4 5 6 6 6 6 6 7 7 8 9 9 9 10 10 10
6 6 5 5 4 5 4 3 2 2 2 3 5 6 6 6 6 6 6 6 6 5 5 4 4 3 3 4 5 5 6 6 6 6 6 7 8 8 8 8 9 9 9
6 6 5 5 5 4 4 3 2 2 2 3 4 6 6 6 7 7 7 6 5 5 4 4 3 3 2 3 4 4 5 5 6 6 6 7 7 7 7 8 8 8 9
6 5 5 5 4 4 3 2 1 1 2 3 4 5 6 6 6 7 7 6 6 5 4 3 3 2 1 2 2 2 3 4 5 5 5 6 6 6 7 7 7 8 8
6 5 5 5 4 3 3 2 1 1 2 3 4 5 5 6 6 6 6 6 6 5 4 3 2 1 1 1 1 2 3 4 4 5 4 5 5 5 6 6 7 7 7
7 6 6 6 5 4 3 2 1 1 2 3 4 4 4 6 6 6 6 6 6 5 4 3 2 1 1 1 0 1 2 3 4 4 5 5 5 5 5 5 6 6 6
8 7 6 6 5 4 3 2 2 1 2 3 3 4 4 5 5 6 6 6 5 5 4 4 3 1 1 1 1 1 2 3 3 4 5 5 5 5 5 5 5 5 4
8 7 6 6 6 5 4 3 1 1 2 3 3 4 4 5 5 5 6 6 5 5 4 4 3 2 1 1 1 1 2 2 3 4 4 4 5 5 5 5 4 4 4
8 7 7 7 6 5 4 2 1 1 2 2 3 3 4 4 5 5 5 5 5 5 4 4 3 3 2 2 2 2 2 2 3 3 3 4 5 5 5 5 4 4 5
8 7 7 7 6 5 4 2 2 1 1 2 2 3 4 4 4 5 5 5 5 5 4 4 3 3 2 2 3 3 3 3 2 2 3 4 5 5 5 5 5 5 5
8 8 7 7 6 5 4 3 2 1 1 1 2 3 3 3 4 4 4 5 5 4 4 4 3 3 3 2 2 3 2 2 2 2 3 3 4 5 5 5 5 5 5
8 8 7 7 6 5 4 3 2 2 1 1 1 2 3 3 3 3 4 4 4 4 4 4 4 4 3 2 2 2 2 2 2 2 2 2 3 4 5 4 4 5 5
8 8 7 7 6 6 5 4 3 3 2 1 1 2 2 2 3 3 4 4 4 4 3 3 3 3 3 2 2 2 2 1 1 1 1 2 2 3 3 4 4 4 5
8 8 6 7 7 6 6 5 4 4 3 2 1 1 1 2 3 3 3 3 4 3 3 2 2 2 2 1 1 1 1 0 1 1 1 1 2 3 3 3 3 4 5
9 8 7 7 7 7 6 5 5 4 3 2 1 1 2 2 3 3 3 3 3 3 2 2 1 1 1 1 1 0 0 1 1 1 0 1 2 2 3 3 3 4 4
10 9 8 8 8 8 7 6 5 5 4 3 2 2 2 2 2 3 3 3 3 3 2 2 1 1 1 1 1 1 1 1 1 1 1 2 2 2 3 4 4 4 5
11 10 9 8 8 8 7 6 5 5 5 4 4 3 4 3 3 3 3 3 3 3 2 2 1 1 2 2 2 2 2 3 3 3 3 3 3 3 4 4 5 5 6

GEFSSE_500_meanwind_186.txt.gz
Wind_Speed
1 1 2 2 3 4 4 5 5 5 5 5 5 6 7 6 6 6 6 6 5 5 5 4 4 5 5 5 6 6 6 6 7 8 8 7 8 8 9 9 9 8 7
1 1 1 2 3 4 4 5 5 4 4 5 6 6 6 6 6 6 6 6 6 5 5 4 4 5 5 6 6 6 6 7 8 8 8 8 8 9 10 10 9 9 8
1 1 2 2 3 4 4 4 4 4 5 6 6 6 7 7 6 6 6 6 5 5 5 5 5 5 6 6 6 6 7 7 8 8 8 8 8 9 10 10 10 9 9
2 2 2 3 3 3 3 3 4 4 5 5 6 6 6 6 7 6 6 6 6 6 6 5 5 6 6 5 6 7 7 7 8 8 9 9 8 9 10 10 10 10 10
2 2 3 3 3 3 3 3 3 4 4 5 6 6 6 7 7 7 7 6 6 6 6 6 6 6 6 6 6 7 7 7 8 9 9 9 9 9 9 10 10 10 10
3 3 2 3 3 2 2 3 4 4 4 4 6 6 6 7 7 7 7 7 6 6 7 6 6 6 6 6 6 7 7 7 8 8 9 9 9 9 9 9 10 10 10
4 3 3 3 3 3 3 3 3 3 4 4 5 6 6 7 7 7 7 7 7 7 7 6 6 6 5 5 6 6 7 7 7 8 9 9 9 9 10 10 10 10 10
4 4 4 4 3 3 3 3 2 3 4 5 5 6 6 7 7 7 7 7 7 7 7 6 5 5 5 5 6 6 6 6 7 7 8 9 10 10 10 10 11 11 10
5 5 5 4 3 3 4 3 2 3 4 5 5 6 6 7 7 7 7 7 6 6 6 5 5 5 5 5 5 5 6 6 6 7 8 9 9 9 10 10 10 10 10
5 5 5 5 4 3 4 3 3 4 5 5 5 5 6 7 7 7 7 6 6 6 6 5 5 4 5 5 5 5 5 6 6 7 8 8 9 9 9 10 10 10 10
7 6 5 5 5 4 4 4 3 3 4 4 4 5 6 6 6 7 7 7 6 6 6 5 5 5 5 5 5 5 5 5 6 7 7 8 8 8 8 9 9 9 9
7 7 6 5 5 5 4 3 3 3 4 4 4 5 5 6 6 7 7 7 6 6 6 5 5 5 4 4 5 5 4 5 5 6 6 7 7 7 8 8 8 8 9
8 7 6 6 5 5 4 3 3 4 4 4 4 4 5 6 7 7 7 7 6 6 5 5 5 4 3 3 3 4 4 4 5 5 6 6 6 6 6 7 7 7 7
7 7 7 6 5 5 4 3 3 3 3 3 4 4 5 6 6 6 7 7 6 6 5 5 4 3 3 2 3 4 4 4 4 5 6 6 6 5 6 6 6 7 7
7 6 6 6 5 5 4 4 4 3 3 3 4 4 4 5 6 6 6 6 6 6 5 5 4 3 2 2 2 3 3 4 4 5 5 6 6 6 5 5 6 6 6
7 6 7 7 6 6 5 4 3 2 2 3 3 4 4 5 6 6 6 6 6 5 5 4 4 3 3 2 1 1 2 3 4 5 5 5 5 5 5 5 5 5 5
8 7 7 6 6 6 5 4 3 3 3 3 3 3 4 5 6 6 6 6 5 5 5 4 3 3 2 2 0 1 2 3 4 5 5 5 4 4 5 5 4 4 4
9 8 8 7 6 6 5 4 4 3 3 3 3 3 4 5 5 6 6 5 5 5 4 3 3 2 2 1 0 0 1 2 2 3 4 5 5 4 4 4 5 5 5
9 9 8 8 7 7 6 5 4 3 2 2 2 2 4 5 5 5 5 5 5 4 3 3 2 2 2 1 2 2 2 2 1 2 3 3 4 5 5 4 4 5 5
10 9 9 8 8 7 6 5 4 3 2 2 2 2 3 4 5 5 5 5 5 4 3 3 2 2 1 2 2 2 2 2 1 1 1 1 3 4 4 5 5 5 5
10 9 9 9 8 7 6 6 5 3 3 2 2 2 2 3 3 4 5 5 5 4 4 3 2 2 1 1 1 1 1 1 2 1 1 1 1 2 4 4 4 5 5
10 9 9 8 8 7 7 6 5 4 4 3 2 2 2 3 3 4 4 5 5 4 3 2 2 2 1 1 0 0 1 1 2 2 1 2 2 2 2 4 4 5 5
9 9 9 9 8 7 7 6 6 5 4 3 2 1 1 2 3 4 4 5 5 4 3 2 2 2 1 1 0 1 1 1 2 2 2 2 3 3 3 4 5 6 6
8 8 8 8 8 7 7 6 5 5 4 4 3 2 1 2 3 3 4 4 4 4 3 3 2 2 2 1 1 1 1 2 2 3 3 3 4 4 5 5 5 6 6
9 9 9 9 8 7 7 6 6 5 5 4 3 2 2 2 3 3 4 4 4 4 4 3 2 2 2 2 1 1 1 2 2 3 4 4 4 5 6 7 7 7 7
10 10 9 9 8 8 7 7 7 6 5 5 4 3 3 3 3 4 4 4 4 4 4 3 3 3 2 2 2 2 2 3 3 4 5 5 6 6 6 7 8 8 9